Regional Weather Roundup
Issued by NWS

Home | Current Version | Previous Version | Text Only | Print | Product List | Glossary On
Versions: 1 2 3 4 5 6 7 8 9 10 11 12 13 14 15 16 17 18 19 20 21 22 23 24 25 26 27 28 29 30 31 32 33 34 35 36 37 38 39 40 41 42 43 44 45 46 47 48 49 50
000
ASUS43 KLSX 031810
RWRMO

WEATHER SUMMARY FOR MISSOURI
NATIONAL WEATHER SERVICE SPRINGFIELD MO
100 PM CDT THU SEP 03 2015

NOTE: "FAIR" INDICATES FEW OR NO CLOUDS BELOW 12,000 FEET WITH NO
       SIGNIFICANT WEATHER AND/OR OBSTRUCTIONS TO VISIBILITY.
       CURRENT SKY AND/OR WEATHER CONDITIONS ARE NOT AVAILABLE FOR
       CHILLICOTHE AND FARMINGTON.

MOZ001>031-035>038-043-044-053-054-031900-
...NORTHERN AND WESTERN MISSOURI...

CITY           SKY/WX    TMP DP  RH WIND       PRES   REMARKS
KANSAS CTY INT PTSUNNY   90  68  48 S18G28    29.94F HX  94
6HR MIN TEMP:  74; 6HR MAX TEMP:  90;

KANSAS C DTWN  SUNNY     90  68  48 S15       29.93F HX  94
6HR MIN TEMP:  75; 6HR MAX TEMP:  90;

LEE`S SUMMIT   SUNNY     88  67  49 S15G21    29.96F HX  91
6HR MIN TEMP:  73; 6HR MAX TEMP:  88;

ST JOSEPH      SUNNY     88  71  57 S14       29.91F HX  94
6HR MIN TEMP:  73; 6HR MAX TEMP:  88; 6HR PCP: TRACE;

CHILLICOTHE      N/A     89  70  53 S8        29.95F HX  94
6HR MIN TEMP:  70; 6HR MAX TEMP:  90;

KIRKSVILLE     SUNNY     90  68  48 VRB7      29.96F HX  94
6HR MIN TEMP:  70; 6HR MAX TEMP:  90; 6HR PCP: TRACE;


$$
MOZ066>068-077>081-088>096-101>105-031900-
...SOUTHWEST MISSOURI...

CITY           SKY/WX    TMP DP  RH WIND       PRES   REMARKS
SPRINGFIELD    SUNNY     87  66  49 S7        30.02F
6HR MIN TEMP:  70; 6HR MAX TEMP:  88;

JOPLIN         SUNNY     87  69  54 S12G21    30.00F HX  91
6HR MIN TEMP:  69; 6HR MAX TEMP:  88;


$$
MOZ032>034-039>042-045>050-055>058-069>072-031900-
...CENTRAL MISSOURI...

CITY           SKY/WX    TMP DP  RH WIND       PRES   REMARKS
COLUMBIA       SUNNY     88  71  57 W8        29.99F HX  94
6HR MIN TEMP:  71; 6HR MAX TEMP:  88;

JEFFERSON CITY SUNNY     89  68  49 VRB5      29.98F HX  93
6HR MIN TEMP:  71; 6HR MAX TEMP:  90;

ROLLA          MOSUNNY   89  66  46 VRB3      30.00F HX  91
6HR MIN TEMP:  67; 6HR MAX TEMP:  91;

SEDALIA        SUNNY     91  67  44 SW9       29.99F HX  94
6HR MIN TEMP:  70; 6HR MAX TEMP:  91;

WHITEMAN AFB   MOSUNNY   90  67  46 SW14      29.96F HX  93
WARRENSBURG    SUNNY     88  64  45 S10G18    29.96F
OSAGE BEACH    SUNNY     90  66  45 W7        30.00F HX  92

$$
MOZ051-052-059>065-031900-
...EAST CENTRAL MISSOURI...

CITY           SKY/WX    TMP DP  RH WIND       PRES   REMARKS
ST LOUIS INTL  MOSUNNY   93  66  40 W13       29.99F HX  96
6HR MIN TEMP:  77; 6HR MAX TEMP:  94;

SPIRIT OF STL  MOSUNNY   90  71  53 SW7       29.97F HX  96
6HR MIN TEMP:  70; 6HR MAX TEMP:  91;

ST CHARLES     SUNNY     90  68  48 SW9       29.96F HX  94
6HR MIN TEMP:  71; 6HR MAX TEMP:  91;


$$
MOZ072>076-082>087-097>100-106>115-031900-
...SOUTH CENTRAL AND SOUTHEAST MISSOURI...

CITY           SKY/WX    TMP DP  RH WIND       PRES   REMARKS
CAPE GIRARDEAU MOSUNNY   89  68  49 S3        29.99F HX  93
6HR MIN TEMP:  66; 6HR MAX TEMP:  90;

FARMINGTON     MOSUNNY   88  70  55 S6        30.04F HX  92
6HR MIN TEMP:  66; 6HR MAX TEMP:  88;

POPLAR BLUFF   SUNNY     88  69  53 SE6       29.99F HX  92
6HR MIN TEMP:  66; 6HR MAX TEMP:  89;

WEST PLAINS    SUNNY     87  67  51 SW8       30.04F HX  90
6HR MIN TEMP:  66; 6HR MAX TEMP:  87;


$$


USA.gov is the U.S. government's official web portal to all federal, state and local government web resources and services.